Windom, MN

7:04 PM CDT on June 24, 2017 (GMT -0500)
Windom Municipal

Weather History for KMWM - October, 2012

Change the Weather History Date:

Sunday, October 28, 2012

  Actual Average Record
Temperature  
Mean Temperature 39 °F -  
Max Temperature 48 °F 56 °F 73 °F (1948)
Min Temperature 30 °F 31 °F 13 °F (1967)
Degree Days  
Heating Degree Days 26    
Moisture  
Dew Point 28 °F    
Average Humidity 66    
Maximum Humidity 86    
Minimum Humidity 46    
Precipitation  
Precipitation 0.00 in - - ()
Sea Level Pressure  
Sea Level Pressure 30.24 in    
Wind  
Wind Speed 8 mph (SSE)    
Max Wind Speed 15 mph    
Max Gust Speed 20 mph    
Visibility 10 miles    
Events      
Averages and records for this station are not official NWS values.
T = Trace of Precipitation, MM = Missing Value Source: NWS Daily Summary

Daily Weather History Graph

Daily Weather History Graph

Search for Another Location

Airport or City:

Trip Planner

Search our weather history database for the weather conditions in past years. The results will help you decide how hot, cold, wet, or windy it might be!

Date:

Astronomy

Oct. 28, 2012 Rise Set
Actual Time 7:52 AM CDT 6:15 PM CDT
Civil Twilight 7:22 AM CDT 6:45 PM CDT
Nautical Twilight 6:48 AM CDT 7:19 PM CDT
Astronomical Twilight 6:15 AM CDT 7:52 PM CDT
Moon 5:33 PM CDT (10/28) 6:45 AM CDT (10/28)
Length of Visible Light 11h 22m
Length of Day
10h 23m
Waxing Gibbous, 99% of the Moon is Illuminated
Oct 28
Waxing Gibbous
Oct 29
Full
Nov 6
Last Quarter
Nov 13
New
Nov 20
First Quarter

Hourly Weather History & Observations

Time (CDT) Temp. Windchill Dew Point Humidity Pressure Visibility Wind Dir Wind Speed Gust Speed Precip Events Conditions
12:12 AM 30.2 °F 24.3 °F 24.8 °F 80% 30.28 in 10.0 mi SSE 5.8 mph - N/A   Mostly Cloudy
12:32 AM 30.2 °F 24.3 °F 26.6 °F 86% 30.28 in 10.0 mi SSE 5.8 mph - N/A   Scattered Clouds
12:53 AM 30.2 °F 24.3 °F 26.6 °F 86% 30.28 in 10.0 mi SSE 5.8 mph - N/A   Overcast
1:12 AM 32.0 °F 26.4 °F 26.6 °F 80% 30.28 in 10.0 mi SSE 5.8 mph - N/A   Overcast
1:32 AM 32.0 °F 27.5 °F 26.6 °F 80% 30.27 in 10.0 mi SSE 4.6 mph - N/A   Overcast
1:53 AM 30.2 °F 24.3 °F 26.6 °F 86% 30.28 in 10.0 mi SSE 5.8 mph - N/A   Overcast
2:12 AM 30.2 °F 24.3 °F 26.6 °F 86% 30.28 in 10.0 mi SSE 5.8 mph - N/A   Overcast
2:32 AM 30.2 °F 24.3 °F 26.6 °F 86% 30.27 in 10.0 mi SSE 5.8 mph - N/A   Overcast
2:52 AM 32.0 °F 26.4 °F 26.6 °F 80% 30.27 in 10.0 mi SSE 5.8 mph - N/A   Overcast
3:12 AM 33.8 °F 27.7 °F 26.6 °F 75% 30.27 in 10.0 mi SSE 6.9 mph - N/A   Overcast
3:33 AM 33.8 °F 27.7 °F 26.6 °F 75% 30.27 in 10.0 mi SSE 6.9 mph - N/A   Overcast
3:52 AM 33.8 °F 28.6 °F 26.6 °F 75% 30.27 in 10.0 mi SSE 5.8 mph - N/A   Overcast
4:12 AM 33.8 °F 27.7 °F 26.6 °F 75% 30.26 in 10.0 mi SSE 6.9 mph - N/A   Overcast
4:32 AM 33.8 °F 28.6 °F 26.6 °F 75% 30.26 in 10.0 mi SSE 5.8 mph - N/A   Overcast
4:52 AM 33.8 °F 28.6 °F 26.6 °F 75% 30.26 in 10.0 mi SSE 5.8 mph - N/A   Overcast
5:13 AM 33.8 °F 28.6 °F 26.6 °F 75% 30.26 in 10.0 mi SSE 5.8 mph - N/A   Overcast
5:32 AM 35.6 °F 29.9 °F 26.6 °F 70% 30.26 in 10.0 mi SSE 6.9 mph - N/A   Overcast
5:52 AM 35.6 °F 29.2 °F 26.6 °F 70% 30.26 in 10.0 mi SSE 8.1 mph - N/A   Overcast
6:13 AM 35.6 °F 30.7 °F 26.6 °F 70% 30.26 in 10.0 mi SSE 5.8 mph - N/A   Overcast
6:32 AM 35.6 °F 29.9 °F 26.6 °F 70% 30.26 in 10.0 mi SSE 6.9 mph - N/A   Overcast
6:52 AM 35.6 °F 29.2 °F 26.6 °F 70% 30.26 in 10.0 mi SSE 8.1 mph - N/A   Overcast
7:13 AM 33.8 °F 27.0 °F 26.6 °F 75% 30.26 in 10.0 mi SSE 8.1 mph - N/A   Overcast
7:32 AM 33.8 °F 27.0 °F 26.6 °F 75% 30.27 in 10.0 mi SSE 8.1 mph - N/A   Overcast
7:52 AM 35.6 °F 29.2 °F 26.6 °F 70% 30.27 in 10.0 mi SSE 8.1 mph - N/A   Overcast
8:13 AM 35.6 °F 28.6 °F 26.6 °F 70% 30.28 in 10.0 mi SSE 9.2 mph - N/A   Overcast
8:32 AM 35.6 °F 29.2 °F 26.6 °F 70% 30.28 in 10.0 mi SSE 8.1 mph - N/A   Overcast
8:52 AM 35.6 °F 28.6 °F 26.6 °F 70% 30.28 in 10.0 mi SSE 9.2 mph - N/A   Overcast
9:32 AM 35.6 °F 29.2 °F 26.6 °F 70% 30.28 in 10.0 mi SSE 8.1 mph - N/A   Overcast
9:52 AM 37.4 °F 31.4 °F 26.6 °F 65% 30.28 in 10.0 mi South 8.1 mph - N/A   Overcast
10:13 AM 37.4 °F 31.4 °F 28.4 °F 70% 30.28 in 10.0 mi South 8.1 mph - N/A   Overcast
10:32 AM 39.2 °F 33.0 °F 28.4 °F 65% 30.28 in 10.0 mi South 9.2 mph - N/A   Overcast
10:52 AM 39.2 °F 32.5 °F 28.4 °F 65% 30.27 in 10.0 mi South 10.4 mph - N/A   Overcast
11:13 AM 41.0 °F 34.7 °F 28.4 °F 61% 30.27 in 10.0 mi South 10.4 mph 17.3 mph N/A   Mostly Cloudy
11:32 AM 41.0 °F 35.2 °F 28.4 °F 61% 30.27 in 10.0 mi South 9.2 mph - N/A   Overcast
11:52 AM 44.6 °F 39.2 °F 28.4 °F 53% 30.26 in 10.0 mi South 10.4 mph - N/A   Scattered Clouds
12:13 PM 42.8 °F 37.5 °F 28.4 °F 57% 30.26 in 10.0 mi South 9.2 mph - N/A   Scattered Clouds
12:32 PM 44.6 °F 37.8 °F 28.4 °F 53% 30.24 in 10.0 mi South 15.0 mph 18.4 mph N/A   Scattered Clouds
12:52 PM 44.6 °F 38.8 °F 28.4 °F 53% 30.24 in 10.0 mi SSE 11.5 mph 17.3 mph N/A   Clear
1:13 PM 44.6 °F 37.8 °F 30.2 °F 57% 30.24 in 10.0 mi SSE 15.0 mph 18.4 mph N/A   Scattered Clouds
1:32 PM 44.6 °F 38.8 °F 28.4 °F 53% 30.24 in 10.0 mi South 11.5 mph 19.6 mph N/A   Clear
1:52 PM 48.2 °F - 30.2 °F 50% 30.23 in 10.0 mi South 13.8 mph 18.4 mph N/A   Clear
2:13 PM 46.4 °F 40.7 °F 28.4 °F 50% 30.22 in 10.0 mi SSW 12.7 mph 17.3 mph N/A   Clear
2:32 PM 46.4 °F 41.1 °F 30.2 °F 53% 30.22 in 10.0 mi South 11.5 mph 17.3 mph N/A   Clear
2:53 PM 46.4 °F 41.1 °F 28.4 °F 50% 30.21 in 10.0 mi South 11.5 mph - N/A   Scattered Clouds
3:12 PM 48.2 °F - 30.2 °F 50% 30.21 in 10.0 mi South 11.5 mph - N/A   Mostly Cloudy
3:32 PM 46.4 °F 40.7 °F 28.4 °F 50% 30.21 in 10.0 mi SSE 12.7 mph 16.1 mph N/A   Scattered Clouds
3:53 PM 48.2 °F - 28.4 °F 46% 30.20 in 10.0 mi South 12.7 mph 18.4 mph N/A   Mostly Cloudy
4:12 PM 46.4 °F 41.1 °F 28.4 °F 50% 30.20 in 10.0 mi SSE 11.5 mph - N/A   Overcast
4:32 PM 46.4 °F 40.1 °F 28.4 °F 50% 30.20 in 10.0 mi SSE 15.0 mph - N/A   Mostly Cloudy
4:53 PM 46.4 °F 40.1 °F 30.2 °F 53% 30.19 in 10.0 mi SSE 15.0 mph 18.4 mph N/A   Scattered Clouds
5:12 PM 46.4 °F 41.5 °F 30.2 °F 53% 30.19 in 10.0 mi SSE 10.4 mph 17.3 mph N/A   Scattered Clouds
5:32 PM 46.4 °F 41.9 °F 30.2 °F 53% 30.19 in 10.0 mi SSE 9.2 mph - N/A   Mostly Cloudy
5:53 PM 44.6 °F 39.2 °F 30.2 °F 57% 30.20 in 10.0 mi SSE 10.4 mph - N/A   Mostly Cloudy
6:12 PM 44.6 °F 39.2 °F 30.2 °F 57% 30.20 in 10.0 mi SSE 10.4 mph - N/A   Mostly Cloudy
6:32 PM 44.6 °F 40.2 °F 30.2 °F 57% 30.20 in 10.0 mi SE 8.1 mph - N/A   Overcast
6:53 PM 42.8 °F 38.0 °F 30.2 °F 61% 30.20 in 10.0 mi SSE 8.1 mph - N/A   Scattered Clouds
7:12 PM 42.8 °F 38.6 °F 30.2 °F 61% 30.21 in 10.0 mi SSE 6.9 mph - N/A   Clear
7:32 PM 42.8 °F 38.0 °F 30.2 °F 61% 30.21 in 10.0 mi SE 8.1 mph - N/A   Scattered Clouds
7:53 PM 41.0 °F 36.4 °F 30.2 °F 65% 30.22 in 10.0 mi SE 6.9 mph - N/A   Scattered Clouds
8:12 PM 39.2 °F 33.0 °F 30.2 °F 70% 30.21 in 10.0 mi SSE 9.2 mph - N/A   Clear
8:53 PM 39.2 °F - 30.2 °F 70% 30.21 in 10.0 mi Calm Calm - N/A   Clear
9:12 PM 39.2 °F 32.5 °F 30.2 °F 70% 30.22 in 10.0 mi SE 10.4 mph - N/A   Clear
9:32 PM 39.2 °F 32.0 °F 30.2 °F 70% 30.22 in 10.0 mi SSE 11.5 mph - N/A   Clear
9:53 PM 37.4 °F 30.3 °F 30.2 °F 75% 30.22 in 10.0 mi SSE 10.4 mph - N/A   Clear
10:12 PM 37.4 °F - 28.4 °F 70% 30.22 in 10.0 mi North - - N/A   Clear
10:32 PM 37.4 °F 31.4 °F 28.4 °F 70% 30.22 in 10.0 mi SE 8.1 mph - N/A   Clear
10:52 PM 37.4 °F 32.1 °F 28.4 °F 70% 30.23 in - SE 6.9 mph - N/A   Clear
11:10 PM 37.4 °F 31.4 °F 28.4 °F 70% 30.23 in 10.0 mi SE 8.1 mph - N/A   Clear
11:32 PM 37.4 °F 30.3 °F 26.6 °F 65% 30.23 in 10.0 mi SSE 10.4 mph - N/A   Clear
11:52 PM 37.4 °F 29.8 °F 26.6 °F 65% 30.23 in 10.0 mi SSE 11.5 mph - N/A   Clear